Location: Allen Fire Department Station 4
(33.1073°N, 96.6988°W)
Time: 07:13:53
(UTC+00:00)

Cosmos 1763 Rocket - Pass Details

Date: 30 June 2022
Orbit: 732 x 780 km, 74.0° (Epoch: 17 August)

Event Time Altitude Azimuth Distance (km) Brightness Sun altitude
Exits shadow 09:01:22 22° 289° (WNW) 1,614 5.0 -23.2°
Maximum altitude 09:01:43 22° 296° (WNW) 1,609 5.0 -23.2°
Drops below altitude 10° 09:05:46 10° 346° (NNW) 2,307 6.4 -22.7°
Sets 09:08:41 0° 2° (N) 3,245 7.6 -22.3°
